Time,TemperatureF,DewpointF,PressureIn,WindDirection,WindDirectionDegrees,WindSpeedMPH,WindSpeedGustMPH,Humidity,HourlyPrecipIn,Conditions,Clouds,dailyrainin,SolarRadiationWatts/m^2,SoftwareType,DateUTC
2013-05-03 00:12:00,74.3,-99.9,29.88,South,178,0.0,0.0,0,0.00,,,0.00,0,weatherlink.com 1.10,2013-05-03 04:12:00,
2013-05-03 00:27:00,74.5,-99.9,29.87,South,177,0.0,1.0,0,0.00,,,0.00,0,weatherlink.com 1.10,2013-05-03 04:27:00,
2013-05-03 00:42:00,74.0,-99.9,29.86,South,177,0.0,1.0,0,0.00,,,0.00,0,weatherlink.com 1.10,2013-05-03 04:42:00,
2013-05-03 00:57:00,74.0,-99.9,29.86,South,177,0.0,2.0,0,0.00,,,0.00,0,weatherlink.com 1.10,2013-05-03 04:57:00,
2013-05-03 01:12:00,74.0,-99.9,29.85,South,178,0.0,0.0,0,0.00,,,0.00,0,weatherlink.com 1.10,2013-05-03 05:12:00,
2013-05-03 01:27:00,73.6,-99.9,29.84,South,177,0.0,1.0,0,0.00,,,0.00,0,weatherlink.com 1.10,2013-05-03 05:27:00,
2013-05-03 01:42:00,73.3,-99.9,29.84,South,177,0.0,3.0,0,0.00,,,0.00,0,weatherlink.com 1.10,2013-05-03 05:42:00,
2013-05-03 01:57:00,73.3,-99.9,29.84,South,178,0.0,0.0,0,0.00,,,0.00,0,weatherlink.com 1.10,2013-05-03 05:57:00,
2013-05-03 02:12:00,73.1,-99.9,29.83,South,177,0.0,1.0,0,0.00,,,0.00,0,weatherlink.com 1.10,2013-05-03 06:12:00,
2013-05-03 02:27:00,73.1,-99.9,29.83,South,177,0.0,0.0,0,0.00,,,0.00,0,weatherlink.com 1.10,2013-05-03 06:27:00,
2013-05-03 02:42:00,72.9,-99.9,29.82,South,177,0.0,1.0,0,0.00,,,0.00,0,weatherlink.com 1.10,2013-05-03 06:42:00,
2013-05-03 02:58:00,73.0,-99.9,29.82,South,177,0.0,0.0,0,0.00,,,0.00,0,weatherlink.com 1.10,2013-05-03 06:58:00,
2013-05-03 03:13:00,72.9,-99.9,29.82,South,178,0.0,1.0,0,0.00,,,0.00,0,weatherlink.com 1.10,2013-05-03 07:13:00,
2013-05-03 03:28:00,72.8,-99.9,29.82,South,177,1.0,1.0,0,0.00,,,0.00,0,weatherlink.com 1.10,2013-05-03 07:28:00,
2013-05-03 03:43:00,72.6,-99.9,29.81,South,177,3.0,3.0,0,0.00,,,0.00,0,weatherlink.com 1.10,2013-05-03 07:43:00,
2013-05-03 03:58:00,73.0,-99.9,29.82,South,177,0.0,4.0,0,0.00,,,0.00,0,weatherlink.com 1.10,2013-05-03 07:58:00,
2013-05-03 04:13:00,72.7,-99.9,29.82,South,177,0.0,2.0,0,0.00,,,0.00,0,weatherlink.com 1.10,2013-05-03 08:13:00,
2013-05-03 04:28:00,72.5,-99.9,29.82,South,177,1.0,3.0,0,0.00,,,0.00,0,weatherlink.com 1.10,2013-05-03 08:28:00,
2013-05-03 04:43:00,72.4,-99.9,29.82,South,177,2.0,2.0,0,0.00,,,0.00,0,weatherlink.com 1.10,2013-05-03 08:43:00,
2013-05-03 04:58:00,72.3,-99.9,29.82,South,177,0.0,1.0,0,0.00,,,0.00,0,weatherlink.com 1.10,2013-05-03 08:58:00,
2013-05-03 05:13:00,72.2,-99.9,29.82,South,177,1.0,2.0,0,0.00,,,0.00,0,weatherlink.com 1.10,2013-05-03 09:13:00,
2013-05-03 05:28:00,71.9,-99.9,29.82,South,177,0.0,3.0,0,0.00,,,0.00,0,weatherlink.com 1.10,2013-05-03 09:28:00,
2013-05-03 05:43:00,71.6,-99.9,29.82,South,177,0.0,1.0,0,0.00,,,0.00,0,weatherlink.com 1.10,2013-05-03 09:43:00,
2013-05-03 05:58:00,71.6,-99.9,29.82,South,177,1.0,1.0,0,0.00,,,0.00,5,weatherlink.com 1.10,2013-05-03 09:58:00,
2013-05-03 06:13:00,71.5,-99.9,29.82,South,177,0.0,1.0,0,0.00,,,0.00,18,weatherlink.com 1.10,2013-05-03 10:13:00,
2013-05-03 06:29:00,71.5,-99.9,29.82,SSE,159,1.0,4.0,0,0.00,,,0.00,37,weatherlink.com 1.10,2013-05-03 10:29:00,
2013-05-03 06:44:00,72.0,-99.9,29.82,SSW,194,0.0,1.0,0,0.00,,,0.00,86,weatherlink.com 1.10,2013-05-03 10:44:00,
2013-05-03 06:59:00,72.7,-99.9,29.83,East,93,0.0,3.0,0,0.00,,,0.00,139,weatherlink.com 1.10,2013-05-03 10:59:00,
2013-05-03 07:14:00,73.6,-99.9,29.83,East,93,0.0,3.0,0,0.00,,,0.00,199,weatherlink.com 1.10,2013-05-03 11:14:00,
2013-05-03 07:29:00,74.0,-99.9,29.84,NE,42,1.0,2.0,0,0.00,,,0.00,269,weatherlink.com 1.10,2013-05-03 11:29:00,
2013-05-03 07:44:00,74.7,-99.9,29.84,NE,42,0.0,0.0,0,0.00,,,0.00,301,weatherlink.com 1.10,2013-05-03 11:44:00,
2013-05-03 07:59:00,76.3,-99.9,29.84,ESE,114,1.0,2.0,0,0.00,,,0.00,359,weatherlink.com 1.10,2013-05-03 11:59:00,
2013-05-03 08:14:00,77.7,-99.9,29.84,ESE,114,0.0,2.0,0,0.00,,,0.00,420,weatherlink.com 1.10,2013-05-03 12:14:00,
2013-05-03 08:29:00,77.8,-99.9,29.84,ESE,114,0.0,2.0,0,0.00,,,0.00,476,weatherlink.com 1.10,2013-05-03 12:29:00,
2013-05-03 08:44:00,79.1,-99.9,29.85,ESE,114,3.0,3.0,0,0.00,,,0.00,526,weatherlink.com 1.10,2013-05-03 12:44:00,
2013-05-03 08:59:00,79.8,-99.9,29.85,ENE,71,2.0,3.0,0,0.00,,,0.00,234,weatherlink.com 1.10,2013-05-03 12:59:00,
2013-05-03 09:14:00,80.8,-99.9,29.85,East,85,0.0,6.0,0,0.00,,,0.00,657,weatherlink.com 1.10,2013-05-03 13:14:00,
2013-05-03 09:29:00,80.8,-99.9,29.86,NNW,337,1.0,7.0,0,0.00,,,0.00,740,weatherlink.com 1.10,2013-05-03 13:29:00,
2013-05-03 09:44:00,81.4,-99.9,29.86,NNE,33,0.0,3.0,0,0.00,,,0.00,824,weatherlink.com 1.10,2013-05-03 13:44:00,
2013-05-03 10:00:00,84.2,-99.9,29.86,WSW,244,2.0,6.0,0,0.00,,,0.00,877,weatherlink.com 1.10,2013-05-03 14:00:00,
2013-05-03 10:15:00,85.0,-99.9,29.86,NNW,331,1.0,4.0,0,0.00,,,0.00,916,weatherlink.com 1.10,2013-05-03 14:15:00,
2013-05-03 10:30:00,84.3,-99.9,29.86,West,264,3.0,6.0,0,0.00,,,0.00,267,weatherlink.com 1.10,2013-05-03 14:30:00,
2013-05-03 10:45:00,82.8,-99.9,29.86,NW,309,1.0,5.0,0,0.00,,,0.00,234,weatherlink.com 1.10,2013-05-03 14:45:00,
2013-05-03 11:00:00,84.1,-99.9,29.86,ENE,71,3.0,6.0,0,0.00,,,0.00,327,weatherlink.com 1.10,2013-05-03 15:00:00,
2013-05-03 11:15:00,84.6,-99.9,29.85,WSW,254,3.0,5.0,0,0.00,,,0.00,343,weatherlink.com 1.10,2013-05-03 15:15:00,
2013-05-03 11:30:00,85.2,-99.9,29.85,WSW,249,1.0,6.0,0,0.00,,,0.00,1081,weatherlink.com 1.10,2013-05-03 15:30:00,
2013-05-03 11:45:00,85.9,-99.9,29.85,SW,222,2.0,6.0,0,0.00,,,0.00,279,weatherlink.com 1.10,2013-05-03 15:45:00,
2013-05-03 12:00:00,85.4,-99.9,29.84,WNW,283,4.0,8.0,0,0.00,,,0.00,290,weatherlink.com 1.10,2013-05-03 16:00:00,
2013-05-03 12:15:00,86.8,-99.9,29.84,SSE,167,1.0,5.0,0,0.00,,,0.00,313,weatherlink.com 1.10,2013-05-03 16:15:00,
2013-05-03 12:30:00,87.4,-99.9,29.84,WSW,244,3.0,8.0,0,0.00,,,0.00,287,weatherlink.com 1.10,2013-05-03 16:30:00,
2013-05-03 12:45:00,86.2,-99.9,29.83,West,262,2.0,11.0,0,0.00,,,0.00,385,weatherlink.com 1.10,2013-05-03 16:45:00,
2013-05-03 13:00:00,86.8,-99.9,29.82,West,276,1.0,11.0,0,0.00,,,0.00,329,weatherlink.com 1.10,2013-05-03 17:00:00,
2013-05-03 13:16:00,87.3,-99.9,29.82,South,188,0.0,10.0,0,0.00,,,0.00,962,weatherlink.com 1.10,2013-05-03 17:16:00,
2013-05-03 13:31:00,89.3,-24.0,29.81,SW,236,8.0,12.0,1,0.00,,,0.00,928,weatherlink.com 1.10,2013-05-03 17:31:00,
2013-05-03 13:46:00,89.5,23.0,29.81,WSW,251,4.0,13.0,9,0.00,,,0.00,907,weatherlink.com 1.10,2013-05-03 17:46:00,
2013-05-03 14:01:00,89.8,33.0,29.80,West,265,9.0,11.0,13,0.00,,,0.00,981,weatherlink.com 1.10,2013-05-03 18:01:00,
2013-05-03 14:16:00,89.8,36.0,29.80,WSW,243,2.0,14.0,15,0.00,,,0.00,831,weatherlink.com 1.10,2013-05-03 18:16:00,
2013-05-03 14:31:00,89.8,41.0,29.79,West,277,4.0,12.0,18,0.00,,,0.00,721,weatherlink.com 1.10,2013-05-03 18:31:00,
2013-05-03 14:46:00,91.8,47.0,29.79,WNW,284,6.0,7.0,21,0.00,,,0.00,824,weatherlink.com 1.10,2013-05-03 18:46:00,
2013-05-03 15:01:00,91.7,-9.0,29.79,WNW,298,2.0,6.0,2,0.00,,,0.00,297,weatherlink.com 1.10,2013-05-03 19:01:00,
2013-05-03 15:16:00,89.6,-99.9,29.78,NNW,338,4.0,6.0,0,0.00,,,0.00,320,weatherlink.com 1.10,2013-05-03 19:16:00,
2013-05-03 15:31:00,84.6,-99.9,29.78,NW,306,2.0,8.0,0,0.00,,,0.00,146,weatherlink.com 1.10,2013-05-03 19:31:00,
2013-05-03 15:46:00,83.1,-99.9,29.78,NW,326,8.0,9.0,0,0.00,,,0.00,100,weatherlink.com 1.10,2013-05-03 19:46:00,
2013-05-03 16:01:00,82.1,-99.9,29.78,SE,128,1.0,6.0,0,0.00,,,0.00,137,weatherlink.com 1.10,2013-05-03 20:01:00,
2013-05-03 16:16:00,82.8,-99.9,29.78,NNW,331,1.0,6.0,0,0.00,,,0.00,172,weatherlink.com 1.10,2013-05-03 20:16:00,
2013-05-03 16:31:00,82.1,-99.9,29.78,NNE,27,0.0,8.0,0,0.00,,,0.00,132,weatherlink.com 1.10,2013-05-03 20:31:00,
2013-05-03 16:47:00,81.2,-99.9,29.79,NNW,336,4.0,11.0,0,0.00,,,0.00,193,weatherlink.com 1.10,2013-05-03 20:47:00,
2013-05-03 17:02:00,81.1,-99.9,29.79,SW,230,1.0,9.0,0,0.00,,,0.00,230,weatherlink.com 1.10,2013-05-03 21:02:00,
2013-05-03 17:17:00,82.0,-99.9,29.79,NNW,331,5.0,6.0,0,0.00,,,0.00,142,weatherlink.com 1.10,2013-05-03 21:17:00,
2013-05-03 17:32:00,81.6,-99.9,29.80,North,355,2.0,6.0,0,0.00,,,0.00,102,weatherlink.com 1.10,2013-05-03 21:32:00,
2013-05-03 17:47:00,81.0,-99.9,29.80,NNW,346,6.0,7.0,0,0.00,,,0.00,84,weatherlink.com 1.10,2013-05-03 21:47:00,
2013-05-03 18:02:00,80.6,-99.9,29.80,North,355,0.0,6.0,0,0.00,,,0.00,39,weatherlink.com 1.10,2013-05-03 22:02:00,
2013-05-03 18:17:00,79.8,-99.9,29.80,North,360,4.0,8.0,0,0.00,,,0.00,12,weatherlink.com 1.10,2013-05-03 22:17:00,
2013-05-03 18:32:00,79.1,-99.9,29.81,NNE,15,4.0,9.0,0,0.00,,,0.00,9,weatherlink.com 1.10,2013-05-03 22:32:00,
2013-05-03 18:47:00,78.5,-99.9,29.81,NNW,331,3.0,9.0,0,0.00,,,0.00,0,weatherlink.com 1.10,2013-05-03 22:47:00,
2013-05-03 19:02:00,78.0,-99.9,29.82,North,5,2.0,6.0,0,0.00,,,0.00,0,weatherlink.com 1.10,2013-05-03 23:02:00,
2013-05-03 19:17:00,77.6,-99.9,29.82,NNW,339,0.0,6.0,0,0.00,,,0.00,0,weatherlink.com 1.10,2013-05-03 23:17:00,
2013-05-03 19:32:00,77.2,-99.9,29.82,NNW,339,0.0,3.0,0,0.00,,,0.00,0,weatherlink.com 1.10,2013-05-03 23:32:00,
2013-05-03 19:47:00,76.8,-99.9,29.83,NNW,340,0.0,1.0,0,0.00,,,0.00,0,weatherlink.com 1.10,2013-05-03 23:47:00,
2013-05-03 20:18:00,76.2,-99.9,29.84,NNW,339,0.0,2.0,0,0.00,,,0.00,0,weatherlink.com 1.10,2013-05-04 00:18:00,
2013-05-03 20:33:00,75.5,-99.9,29.84,NNW,339,0.0,2.0,0,0.00,,,0.00,0,weatherlink.com 1.10,2013-05-04 00:33:00,
2013-05-03 20:48:00,75.4,-99.9,29.85,NNW,339,0.0,1.0,0,0.00,,,0.00,0,weatherlink.com 1.10,2013-05-04 00:48:00,
2013-05-03 21:03:00,75.6,-99.9,29.86,NNW,339,0.0,1.0,0,0.00,,,0.00,0,weatherlink.com 1.10,2013-05-04 01:03:00,
2013-05-03 21:18:00,75.5,-99.9,29.86,NNW,340,0.0,1.0,0,0.00,,,0.00,0,weatherlink.com 1.10,2013-05-04 01:18:00,
2013-05-03 21:33:00,75.5,-99.9,29.87,NNW,339,0.0,1.0,0,0.00,,,0.00,0,weatherlink.com 1.10,2013-05-04 01:33:00,
2013-05-03 21:48:00,75.6,-99.9,29.87,NNW,340,0.0,0.0,0,0.00,,,0.00,0,weatherlink.com 1.10,2013-05-04 01:48:00,
2013-05-03 22:03:00,75.7,-99.9,29.88,NNW,339,0.0,0.0,0,0.00,,,0.00,0,weatherlink.com 1.10,2013-05-04 02:03:00,
2013-05-03 22:18:00,75.8,-99.9,29.87,NNW,340,1.0,2.0,0,0.00,,,0.00,0,weatherlink.com 1.10,2013-05-04 02:18:00,
2013-05-03 22:33:00,75.6,-99.9,29.87,NNW,339,0.0,2.0,0,0.00,,,0.00,0,weatherlink.com 1.10,2013-05-04 02:33:00,
2013-05-03 22:48:00,75.5,-99.9,29.87,NNW,339,1.0,2.0,0,0.00,,,0.00,0,weatherlink.com 1.10,2013-05-04 02:48:00,
2013-05-03 23:03:00,75.7,-99.9,29.87,NNW,340,1.0,3.0,0,0.00,,,0.00,0,weatherlink.com 1.10,2013-05-04 03:03:00,
2013-05-03 23:18:00,74.7,-99.9,29.86,SE,131,1.0,4.0,0,0.00,,,0.00,0,weatherlink.com 1.10,2013-05-04 03:18:00,
2013-05-03 23:34:00,75.3,-99.9,29.86,SE,132,0.0,2.0,0,0.00,,,0.00,0,weatherlink.com 1.10,2013-05-04 03:34:00,
2013-05-03 23:49:00,74.2,-99.9,29.85,SW,219,0.0,4.0,0,0.00,,,0.00,0,weatherlink.com 1.10,2013-05-04 03:49:00,